This demonstration page uses our WeatherBlox Daily Observations layout. Learn more.

Left ArrowRight Arrow

Hourly Observations for April 11, 2021

Temp ( °F °C ) Dew Point ( °F °C ) Humidity (%) Winds ( mph kmh ) Pressure ( in mb ) Visibility ( mi km ) Precip ( " mm )
12:15 am 00:15 Mostly Cloudy 52 11 52 11 100 100 SSW 8 13 29.47 998 10 16.0934 N/A
12:35 am 00:35 Mostly Cloudy 52 11 48 9 88 88 SSW 12 19 29.46 998 10 16.0934 N/A
12:55 am 00:55 Partly Cloudy 50 10 48 9 94 94 SSW 10 17 29.47 998 10 16.0934 N/A
1:15 am 01:15 Partly Cloudy 50 10 48 9 94 94 SSW 9 15 29.46 998 10 16.0934 N/A
1:35 am 01:35 Partly Cloudy 50 10 48 9 94 94 SSW 6 9 29.46 998 10 16.0934 N/A
1:55 am 01:55 Clear 50 10 46 8 88 88 SSW 14 22 29.45 997 10 16.0934 N/A
2:15 am 02:15 Clear 48 9 46 8 94 94 S 9 15 29.45 997 10 16.0934 N/A
2:35 am 02:35 Clear 48 9 46 8 94 94 S 9 15 29.44 997 10 16.0934 N/A
2:55 am 02:55 Partly Cloudy 46 8 46 8 100 100 S 3 6 29.45 997 10 16.0934 N/A
3:15 am 03:15 Partly Cloudy 46 8 45 7 93 93 Calm 29.44 997 10 16.0934 N/A
3:35 am 03:35 Mostly Cloudy 46 8 46 8 100 100 Calm 29.43 997 10 16.0934 N/A
3:55 am 03:55 Cloudy 46 8 46 8 100 100 Calm 29.42 996 10 16.0934 N/A
4:15 am 04:15 Cloudy 46 8 46 8 100 100 Calm 29.42 996 10 16.0934 N/A
4:35 am 04:35 Cloudy 46 8 46 8 100 100 Calm 29.41 996 10 16.0934 N/A
4:55 am 04:55 Cloudy 46 8 46 8 100 100 S 9 15 29.42 996 5 8.0467 N/A
5:15 am 05:15 Cloudy 46 8 46 8 100 100 S 13 20 29.41 996 7 11.26538 N/A
5:35 am 05:35 Cloudy 46 8 46 8 100 100 S 7 11 29.41 996 10 16.0934 N/A
5:55 am 05:55 Cloudy 46 8 46 8 100 100 S 10 17 29.41 996 10 16.0934 N/A
6:15 am 06:15 Cloudy 46 8 46 8 100 100 S 9 15 29.4 995 10 16.0934 N/A
6:35 am 06:35 Cloudy 46 8 46 8 100 100 S 10 17 29.4 995 4 6.43736 N/A
6:55 am 06:55 Cloudy 46 8 46 8 100 100 S 10 17 29.4 995 7 11.26538 N/A
7:15 am 07:15 Cloudy 46 8 46 8 100 100 S 10 17 29.4 995 7 11.26538 N/A
7:35 am 07:35 Cloudy 46 8 46 8 100 100 S 8 13 29.39 995 3 4.82802 N/A
7:55 am 07:55 Cloudy 46 8 46 8 100 100 S 12 19 29.39 995 10 16.0934 N/A
8:15 am 08:15 Cloudy 46 8 46 8 100 100 S 9 15 29.39 995 10 16.0934 N/A
8:35 am 08:35 Cloudy 46 8 46 8 100 100 S 15 24 29.39 995 10 16.0934 N/A
8:55 am 08:55 Cloudy 46 8 46 8 100 100 S 13 20 29.39 995 7 11.26538 N/A
9:15 am 09:15 Cloudy 46 8 46 8 100 100 SSW 10 17 29.39 995 4 6.43736 N/A
9:35 am 09:35 Cloudy 46 8 46 8 100 100 SSW 15 24 29.39 995 7 11.26538 N/A
9:55 am 09:55 Cloudy 46 8 46 8 100 100 SSW 12 19 29.39 995 5 8.0467 N/A
10:15 am 10:15 Cloudy 46 8 46 8 100 100 SSW 16 26 29.39 995 7 11.26538 N/A
10:35 am 10:35 Cloudy 46 8 46 8 100 100 S 13 20 29.4 995 4 6.43736 N/A
10:55 am 10:55 Cloudy 48 9 48 9 100 100 SSW 17 28 29.39 995 7 11.26538 N/A
11:15 am 11:15 Cloudy 48 9 48 9 100 100 SSW 14 22 29.39 995 3 4.82802 N/A
11:35 am 11:35 Cloudy 48 9 48 9 100 100 SSW 15 24 29.4 996 2.5 4.02335 N/A
11:55 am 11:55 Cloudy 48 9 48 9 100 100 SW 15 24 29.4 996 2.5 4.02335 N/A
12:15 pm 12:15 Cloudy 48 9 48 9 100 100 SW 15 24 29.41 996 3 4.82802 N/A
12:35 pm 12:35 Cloudy 48 9 48 9 100 100 SW 17 28 29.41 996 2.5 4.02335 N/A
12:55 pm 12:55 Cloudy 48 9 48 9 100 100 SW 17 28 29.42 996 3 4.82802 N/A
1:15 pm 13:15 Cloudy 48 9 48 9 100 100 SW 14 22 29.42 996 4 6.43736 N/A
1:35 pm 13:35 Cloudy 48 9 48 9 100 100 SW 18 30 29.42 996 4 6.43736 N/A
1:55 pm 13:55 Cloudy 48 9 48 9 100 100 SW 18 30 29.42 996 5 8.0467 N/A
2:15 pm 14:15 Cloudy 48 9 48 9 100 100 SW 17 28 29.43 997 4 6.43736 N/A
2:35 pm 14:35 Cloudy 48 9 48 9 100 100 SW 15 24 29.44 997 1.5 2.41401 N/A
2:55 pm 14:55 Cloudy 48 9 48 9 100 100 SW 20 31 29.44 997 2.5 4.02335 N/A
3:15 pm 15:15 Cloudy 48 9 48 9 100 100 SW 16 26 29.45 997 4 6.43736 N/A
3:35 pm 15:35 Cloudy 48 9 48 9 100 100 SW 18 30 29.45 997 5 8.0467 N/A
3:55 pm 15:55 Cloudy 50 10 50 10 100 100 SW 18 30 29.45 997 10 16.0934 N/A
4:15 pm 16:15 Cloudy 48 9 48 9 100 100 WSW 14 22 29.46 998 7 11.26538 N/A
4:35 pm 16:35 Cloudy 50 10 50 10 100 100 SW 14 22 29.46 998 10 16.0934 N/A
4:55 pm 16:55 Cloudy 50 10 50 10 100 100 WSW 20 31 29.46 998 10 16.0934 N/A
5:15 pm 17:15 Cloudy 50 10 50 10 100 100 SW 15 24 29.47 998 10 16.0934 N/A
5:35 pm 17:35 Cloudy 48 9 48 9 100 100 WSW 16 26 29.48 998 2.5 4.02335 N/A
5:55 pm 17:55 Cloudy 48 9 48 9 100 100 WSW 16 26 29.49 999 1.75 2.816345 N/A
6:15 pm 18:15 Cloudy 48 9 48 9 100 100 WSW 17 28 29.5 999 1.5 2.41401 N/A
6:35 pm 18:35 Cloudy 48 9 48 9 100 100 WSW 16 26 29.5 999 3 4.82802 N/A
6:55 pm 18:55 Cloudy 48 9 48 9 100 100 SW 16 26 29.51 999 4 6.43736 N/A
7:15 pm 19:15 Cloudy 48 9 48 9 100 100 WSW 15 24 29.52 1000 4 6.43736 N/A
7:35 pm 19:35 Cloudy 48 9 48 9 100 100 WSW 16 26 29.53 1000 7 11.26538 N/A
7:55 pm 19:55 Cloudy 48 9 48 9 100 100 SW 16 26 29.53 1000 3 4.82802 N/A
8:15 pm 20:15 Cloudy 48 9 48 9 100 100 WSW 13 20 29.54 1000 7 11.26538 N/A
8:35 pm 20:35 Cloudy 48 9 48 9 100 100 WSW 13 20 29.55 1001 7 11.26538 N/A
8:55 pm 20:55 Cloudy 48 9 48 9 100 100 WSW 14 22 29.55 1001 5 8.0467 N/A
9:15 pm 21:15 Cloudy 48 9 48 9 100 100 WSW 14 22 29.56 1001 7 11.26538 N/A
9:35 pm 21:35 Cloudy 48 9 48 9 100 100 WSW 14 22 29.57 1001 10 16.0934 N/A
9:55 pm 21:55 Cloudy 48 9 48 9 100 100 WSW 13 20 29.59 1002 7 11.26538 N/A
10:15 pm 22:15 Cloudy 46 8 46 8 100 100 WSW 13 20 29.6 1002 5 8.0467 N/A
10:35 pm 22:35 Cloudy 46 8 46 8 100 100 WSW 14 22 29.61 1003 5 8.0467 N/A
10:55 pm 22:55 Cloudy 46 8 46 8 100 100 WSW 12 19 29.61 1003 7 11.26538 N/A
11:15 pm 23:15 Cloudy 46 8 46 8 100 100 WSW 12 19 29.61 1003 10 16.0934 N/A
11:35 pm 23:35 Cloudy 46 8 46 8 100 100 WSW 13 20 29.62 1003 5 8.0467 N/A
11:55 pm 23:55 Cloudy 46 8 46 8 100 100 W 13 20 29.62 1003 10 16.0934 N/A

Powered by AerisWeather